Normandy Observed Data For Previous 48 Hours

Caption
Day and Hour Reservoir Elevation (behind dam)* Tailwater Elevation (below dam)* Average Hourly Discharge*
11/11/2018 1 AM CST 869.49 792.43 890
11/11/2018 2 AM CST 869.48 792.42 890
11/11/2018 3 AM CST 869.46 792.43 890
11/11/2018 4 AM CST 869.44 792.41 890
11/11/2018 5 AM CST 869.42 792.41 890
11/11/2018 6 AM CST 869.40 792.41 890
11/11/2018 7 AM CST 869.39 792.41 890
11/11/2018 8 AM CST 869.36 792.42 890
11/11/2018 9 AM CST 869.34 792.42 890
11/11/2018 10 AM CST 869.33 792.41 890
11/11/2018 11 AM CST 869.30 792.42 887
11/11/2018 12 PM CST 869.29 792.42 885
11/11/2018 1 PM CST 869.27 792.40 885
11/11/2018 2 PM CST 869.24 792.41 885
11/11/2018 3 PM CST 869.22 792.41 885
11/11/2018 4 PM CST 869.21 792.40 885
11/11/2018 5 PM CST 869.19 792.41 885
11/11/2018 6 PM CST 869.17 792.40 885
11/11/2018 7 PM CST 869.15 792.41 885
11/11/2018 8 PM CST 869.13 792.40 885
11/11/2018 9 PM CST 869.10 792.40 885
11/11/2018 10 PM CST 869.10 792.38 885
11/11/2018 11 PM CST 869.07 792.38 883
11/12/2018 12 AM CST 869.05 792.37 880
11/12/2018 1 AM CST 869.04 792.38 880
11/12/2018 2 AM CST 869.01 792.38 880
11/12/2018 3 AM CST 868.99 792.37 880
11/12/2018 4 AM CST 868.98 792.36 880
11/12/2018 5 AM CST 868.96 792.37 880
11/12/2018 6 AM CST 868.94 792.37 880
11/12/2018 7 AM CST 868.93 792.38 880
11/12/2018 8 AM CST 868.91 792.37 880
11/12/2018 9 AM CST 868.89 792.23 880
11/12/2018 10 AM CST 868.89 791.81 655
11/12/2018 11 AM CST 868.90 791.76 655
11/12/2018 12 PM CST 868.91 791.75 655
11/12/2018 1 PM CST 868.90 791.77 655
11/12/2018 2 PM CST 868.90 791.76 655
11/12/2018 3 PM CST 868.90 791.76 655
11/12/2018 4 PM CST 868.88 791.76 655
11/12/2018 5 PM CST 868.89 791.76 655
11/12/2018 6 PM CST 868.88 791.76 655
11/12/2018 7 PM CST 868.88 791.75 655
11/12/2018 8 PM CST 868.89 791.76 655
11/12/2018 9 PM CST 868.89 791.74 655
11/12/2018 10 PM CST 868.90 791.75 655
11/12/2018 11 PM CST 868.91 791.75 655
11/13/2018 12 AM CST 868.91 791.75 655
11/13/2018 1 AM CST 868.92 791.75 655
11/13/2018 2 AM CST 868.94 791.75 655
11/13/2018 3 AM CST 868.95 791.76 655
11/13/2018 4 AM CST 868.95 791.74 655
11/13/2018 5 AM CST 868.96 791.76 655
11/13/2018 6 AM CST 868.97 791.74 655
11/13/2018 7 AM CST 868.98 791.75 655
11/13/2018 8 AM CST 868.98 791.74 655
11/13/2018 9 AM CST 868.97 791.74 655

Elevations are in feet above sea level. Discharges are in cubic feet per second and are reported at the end of the hour.